Hot Springs, VA

3:54 PM EDT on May 25, 2017 (GMT -0400)
Ingalls

Weather History for KHSP - July, 2013

Change the Weather History Date:

Friday, July 12, 2013

  Actual Average Record
Temperature  
Mean Temperature 60 °F -  
Max Temperature 64 °F 73 °F 82 °F (2011)
Min Temperature 57 °F 58 °F 50 °F (1999)
Degree Days  
Heating Degree Days 4    
Growing Degree Days 10 (Base 50)    
Moisture  
Dew Point 59 °F    
Average Humidity 97    
Maximum Humidity 100    
Minimum Humidity 88    
Precipitation  
Precipitation 0.00 in - - ()
Sea Level Pressure  
Sea Level Pressure 30.14 in    
Wind  
Wind Speed 8 mph (ENE)    
Max Wind Speed 12 mph    
Max Gust Speed 18 mph    
Visibility 5 miles    
Events Fog , Rain , Thunderstorm    
Averages and records for this station are not official NWS values.
T = Trace of Precipitation, MM = Missing Value Source: NWS Daily Summary

Daily Weather History Graph

Daily Weather History Graph

Search for Another Location

Airport or City:

Trip Planner

Search our weather history database for the weather conditions in past years. The results will help you decide how hot, cold, wet, or windy it might be!

Date:

Astronomy

Jul. 12, 2013 Rise Set
Actual Time 6:07 AM EDT 8:42 PM EDT
Civil Twilight 5:36 AM EDT 9:13 PM EDT
Nautical Twilight 4:58 AM EDT 9:51 PM EDT
Astronomical Twilight 4:15 AM EDT 10:34 PM EDT
Moon 10:17 AM EDT (7/12) 10:57 PM EDT (7/12)
Length of Visible Light 15h 37m
Length of Day
14h 35m
Waxing Crescent, 17% of the Moon is Illuminated
Jul 12
Waxing Crescent
Jul 15
First Quarter
Jul 22
Full
Jul 29
Last Quarter
Aug 6
New

Hourly Weather History & Observations

Time (EDT) Temp. Dew Point Humidity Pressure Visibility Wind Dir Wind Speed Gust Speed Precip Events Conditions
12:15 AM 62.6 °F 62.6 °F 100% 30.08 in 0.2 mi East 5.8 mph - N/A Fog Fog
12:35 AM 60.8 °F 60.8 °F 100% 30.10 in 0.2 mi NE 8.1 mph - N/A Rain Light Rain
12:55 AM 60.8 °F 60.8 °F 100% 30.10 in 1.5 mi NNE 8.1 mph - N/A Thunderstorm Overcast
1:15 AM 60.8 °F 60.8 °F 100% 30.10 in 10.0 mi ENE 8.1 mph - N/A   Overcast
1:35 AM 60.8 °F 60.8 °F 100% 30.10 in 10.0 mi East 9.2 mph - N/A   Overcast
1:55 AM 60.8 °F 60.8 °F 100% 30.08 in 7.0 mi ENE 9.2 mph - N/A   Overcast
2:15 AM 60.8 °F 60.8 °F 100% 30.08 in 10.0 mi ENE 8.1 mph 16.1 mph N/A   Overcast
2:35 AM 60.8 °F 60.8 °F 100% 30.09 in 10.0 mi NE 6.9 mph - N/A   Overcast
2:55 AM 60.8 °F 60.8 °F 100% 30.09 in 1.5 mi NE 6.9 mph - N/A   Overcast
3:15 AM 60.8 °F 60.8 °F 100% 30.09 in 1.0 mi ENE 6.9 mph - N/A   Overcast
3:35 AM 59.0 °F 59.0 °F 100% 30.08 in 0.2 mi ENE 9.2 mph 16.1 mph N/A Fog Fog
3:55 AM 59.0 °F 59.0 °F 100% 30.07 in 0.2 mi NE 6.9 mph - N/A Fog Fog
4:15 AM 59.0 °F 59.0 °F 100% 30.07 in 0.2 mi ENE 10.4 mph - N/A Fog Fog
4:35 AM 57.2 °F 57.2 °F 100% 30.08 in 0.2 mi ENE 9.2 mph - N/A Fog Fog
4:55 AM 57.2 °F 57.2 °F 100% 30.08 in 0.2 mi ENE 10.4 mph - N/A Fog Fog
5:15 AM 57.2 °F 57.2 °F 100% 30.09 in 0.2 mi ENE 8.1 mph 16.1 mph N/A Fog Fog
5:35 AM 57.2 °F 57.2 °F 100% 30.09 in 0.2 mi ENE 9.2 mph 18.4 mph N/A Fog Fog
5:55 AM 57.2 °F 57.2 °F 100% 30.09 in 0.2 mi East 10.4 mph 18.4 mph N/A Fog Fog
6:15 AM 57.2 °F 57.2 °F 100% 30.10 in 0.2 mi East 11.5 mph 17.3 mph N/A Rain Light Rain
6:35 AM 57.2 °F 57.2 °F 100% 30.11 in 10.0 mi East 9.2 mph 16.1 mph N/A   Overcast
6:55 AM 57.2 °F 57.2 °F 100% 30.11 in 10.0 mi East 8.1 mph - N/A   Mostly Cloudy
7:15 AM 57.2 °F 57.2 °F 100% 30.11 in 10.0 mi East 5.8 mph - N/A   Overcast
7:35 AM 57.2 °F 57.2 °F 100% 30.11 in 10.0 mi ENE 6.9 mph - N/A   Overcast
7:55 AM 57.2 °F 57.2 °F 100% 30.11 in 10.0 mi ENE 9.2 mph - N/A   Mostly Cloudy
8:15 AM 57.2 °F 57.2 °F 100% 30.12 in 10.0 mi East 6.9 mph - N/A   Scattered Clouds
8:35 AM 57.2 °F 57.2 °F 100% 30.12 in 10.0 mi East 6.9 mph - N/A   Clear
8:55 AM 57.2 °F 57.2 °F 100% 30.12 in 10.0 mi ENE 6.9 mph - N/A   Clear
9:15 AM 59.0 °F 57.2 °F 94% 30.13 in 10.0 mi ENE 6.9 mph - N/A   Scattered Clouds
9:35 AM 59.0 °F 57.2 °F 94% 30.14 in 10.0 mi ENE 8.1 mph - N/A   Mostly Cloudy
9:55 AM 60.8 °F 57.2 °F 88% 30.14 in 10.0 mi East 6.9 mph - N/A   Mostly Cloudy
10:15 AM 60.8 °F 57.2 °F 88% 30.14 in 10.0 mi ENE 8.1 mph - N/A   Mostly Cloudy
10:35 AM 60.8 °F 57.2 °F 88% 30.15 in 10.0 mi ENE 5.8 mph - N/A   Overcast
10:55 AM 60.8 °F 57.2 °F 88% 30.15 in 10.0 mi ENE 5.8 mph - N/A   Overcast
11:15 AM 60.8 °F 57.2 °F 88% 30.16 in 10.0 mi ENE 6.9 mph - N/A   Overcast
11:35 AM 60.8 °F 60.8 °F 100% 30.16 in 10.0 mi ENE 8.1 mph - N/A   Overcast
11:55 AM 60.8 °F 59.0 °F 94% 30.17 in 10.0 mi East 5.8 mph - N/A   Overcast
12:15 PM 60.8 °F 59.0 °F 94% 30.17 in 0.5 mi ENE 5.8 mph - N/A Fog Fog
12:35 PM 59.0 °F 59.0 °F 100% 30.17 in 1.8 mi ENE 6.9 mph - N/A   Overcast
12:55 PM 60.8 °F 59.0 °F 94% 30.16 in 10.0 mi ENE 8.1 mph - N/A   Overcast
1:15 PM 60.8 °F 59.0 °F 94% 30.17 in 10.0 mi ENE 5.8 mph - N/A   Overcast
1:35 PM 60.8 °F 59.0 °F 94% 30.17 in 10.0 mi East 6.9 mph - N/A   Overcast
1:55 PM 60.8 °F 59.0 °F 94% 30.17 in 7.0 mi NE 6.9 mph - N/A   Overcast
2:15 PM 62.6 °F 60.8 °F 94% 30.17 in 10.0 mi ENE 5.8 mph - N/A   Overcast
2:35 PM 62.6 °F 60.8 °F 94% 30.17 in 10.0 mi ENE 6.9 mph - N/A   Overcast
2:55 PM 64.4 °F 60.8 °F 88% 30.17 in 10.0 mi East 5.8 mph - N/A   Overcast
3:15 PM 62.6 °F 60.8 °F 94% 30.17 in 10.0 mi ENE 6.9 mph - N/A   Overcast
3:35 PM 64.4 °F 60.8 °F 88% 30.16 in 10.0 mi ENE 8.1 mph - N/A   Overcast
3:55 PM 64.4 °F 60.8 °F 88% 30.16 in 10.0 mi ENE 8.1 mph - N/A Thunderstorm Overcast
4:15 PM 64.4 °F 60.8 °F 88% 30.16 in 10.0 mi East 6.9 mph - N/A   Overcast
4:35 PM 64.4 °F 60.8 °F 88% 30.16 in 10.0 mi ENE 6.9 mph - N/A   Overcast
4:55 PM 62.6 °F 60.8 °F 94% 30.16 in 10.0 mi East 8.1 mph - N/A   Overcast
5:15 PM 64.4 °F 60.8 °F 88% 30.16 in 10.0 mi East 5.8 mph - N/A   Overcast
5:35 PM 64.4 °F 60.8 °F 88% 30.16 in 10.0 mi East 5.8 mph - N/A   Overcast
5:55 PM 62.6 °F 60.8 °F 94% 30.16 in 7.0 mi East 8.1 mph - N/A   Overcast
6:15 PM 62.6 °F 60.8 °F 94% 30.15 in 7.0 mi East 9.2 mph - N/A   Overcast
6:35 PM 60.8 °F 60.8 °F 100% 30.16 in 0.2 mi East 6.9 mph - N/A Fog Fog
6:55 PM 60.8 °F 60.8 °F 100% 30.16 in 0.2 mi East 6.9 mph - N/A Fog Fog
7:15 PM 60.8 °F 60.8 °F 100% 30.17 in 0.2 mi ENE 9.2 mph - N/A Fog Fog
7:35 PM 60.8 °F 60.8 °F 100% 30.18 in 0.2 mi East 6.9 mph - N/A Fog Fog
7:55 PM 60.8 °F 60.8 °F 100% 30.18 in 0.2 mi East 5.8 mph - N/A Fog Fog
8:15 PM 60.8 °F 60.8 °F 100% 30.18 in 0.2 mi East 10.4 mph - N/A Fog Fog
8:35 PM 59.0 °F 59.0 °F 100% 30.18 in 1.0 mi East 8.1 mph - N/A   Overcast
8:55 PM 59.0 °F 59.0 °F 100% 30.18 in 0.2 mi East 8.1 mph - N/A Fog Fog
9:15 PM 59.0 °F 59.0 °F 100% 30.18 in 0.2 mi East 9.2 mph - N/A Fog Fog
9:35 PM 57.2 °F 57.2 °F 100% 30.19 in 0.2 mi East 9.2 mph - N/A Fog Fog
9:55 PM 59.0 °F 59.0 °F 100% 30.19 in 0.2 mi East 8.1 mph - N/A Fog Fog
10:15 PM 57.2 °F 57.2 °F 100% 30.20 in 0.2 mi East 6.9 mph - N/A Fog Fog
10:35 PM 59.0 °F 59.0 °F 100% 30.22 in 0.2 mi East 6.9 mph - N/A Fog Fog
10:55 PM 59.0 °F 59.0 °F 100% 30.22 in 0.2 mi East 6.9 mph - N/A Fog Fog
11:15 PM 59.0 °F 59.0 °F 100% 30.22 in 0.2 mi East 8.1 mph - N/A Fog Fog
11:35 PM 59.0 °F 59.0 °F 100% 30.21 in 0.2 mi East 6.9 mph - N/A Rain Light Rain
11:55 PM 59.0 °F 59.0 °F 100% 30.22 in 0.2 mi East 4.6 mph - N/A Rain Heavy Rain